Regional Weather Roundup
Issued by NWS Little Rock, AR

Home | Current Version | Previous Version | Text Only | Print | Product List | Glossary Off
Versions: 1 2 3 4 5 6 7 8 9 10 11 12 13 14 15 16 17 18 19 20 21 22 23 24 25 26 27 28 29 30 31 32

000
ASUS44 KLZK 270205
RWRLZK

WEATHER ROUNDUP FOR ARKANSAS
NATIONAL WEATHER SERVICE LITTLE ROCK AR
900 PM CDT WED APR 26 2017

NOTE: "FAIR" INDICATES FEW OR NO CLOUDS BELOW 12,000 FEET WITH NO
SIGNIFICANT WEATHER AND/OR OBSTRUCTIONS TO VISIBILITY.

ARZ001-003-010-029-270300-
NORTHWEST ARKANSAS

CITY           SKY/WX    TMP DP  RH WIND       PRES   REMARKS
FAYETTEVILLE   CLOUDY    44  44 100 NW12      29.67R
FORT SMITH     CLOUDY    51  44  77 NW13      29.71R
HARRISON       CLOUDY    45  44  97 NW15G22   29.59S
BENTONVILLE    CLOUDY    45  41  87 NW10      29.67R
ROGERS         CLOUDY    44  43  96 NW12      29.66R
SILOAM SPGS    CLOUDY    45  39  81 NW12      29.68R
HIGHFILL       CLOUDY    45  43  93 NW9       29.67R
SPRINGDALE     CLOUDY    45  45 100 W13G24    29.67R
$$

ARZ004-005-016-270300-
NORTH CENTRAL ARKANSAS

CITY           SKY/WX    TMP DP  RH WIND       PRES   REMARKS
BATESVILLE     CLOUDY   N/A N/A N/A W10G22    29.54R
FLIPPIN        CLOUDY   N/A N/A N/A W9G16     29.57R
MTN HOME       CLOUDY    47  45  93 VRB6      29.56R
$$

ARZ040-041-270300-
WEST CENTRAL ARKANSAS

CITY           SKY/WX    TMP DP  RH WIND       PRES   REMARKS
MENA           CLOUDY    52  50  93 W10       29.69R
MOUNT IDA      CLOUDY    51  47  86 NW7G20    29.62R
$$

ARZ009-017-025-026-028-270300-
NORTHEAST ARKANSAS

CITY           SKY/WX    TMP DP  RH WIND       PRES   REMARKS
JONESBORO      HVY RAIN  59  58  96 E13       29.45F FOG
NEWPORT        CLOUDY    60  59  96 SE7G20    29.50R
WALNUT RIDGE   CLOUDY    59  55  88 E13       29.38F
BLYTHEVILLE    RAIN      59  58  96 SE6       29.56R
$$

ARZ022-023-033-042-044-270300-
CENTRAL ARKANSAS

CITY           SKY/WX    TMP DP  RH WIND       PRES   REMARKS
LITTLE ROCK    CLOUDY    56  55  97 W14       29.57R
N LITTLE ROCK    N/A     55  53  94 W7        29.56R
JACKSONVILLE   CLOUDY    57  56  99 W13       29.56R
CONWAY           N/A     55  54  94 W16G23    29.58R
SEARCY         LGT RAIN  59  59 100 SW9       29.55R FOG
HOT SPRINGS    CLOUDY    54  32  43 W6        29.62R
RUSSELLVILLE   CLOUDY    52  49  89 W12G20    29.60R
CLINTON          N/A     54  52  94 VRB3      29.57R
$$

ARZ036-270300-
EAST ARKANSAS

CITY           SKY/WX    TMP DP  RH WIND       PRES   REMARKS
WEST MEMPHIS   RAIN      62  62 100 S7        29.54S FOG
$$

ARZ050-053-066-070-073-270300-
SOUTHWEST ARKANSAS

CITY           SKY/WX    TMP DP  RH WIND       PRES   REMARKS
ARKADELPHIA    CLOUDY    56  53  90 W14G21    29.63R
CAMDEN         CLOUDY    57  54  88 W10G20    29.62R
TEXARKANA      CLOUDY    53  49  86 NW16G22   29.68R
EL DORADO        N/A    N/A N/A N/A MISG      29.64R
DE QUEEN       CLOUDY    53  49  86 NW12G17   29.68R
$$

ARZ056-057-069-270300-
SOUTHEAST ARKANSAS

CITY           SKY/WX    TMP DP  RH WIND       PRES   REMARKS
PINE BLUFF     CLOUDY    61  60  97 W9        29.55R
STUTTGART      CLOUDY    61  52  72 W10       29.55R
MONTICELLO     CLOUDY    64  62  93 W8        29.57R

$$






USA.gov is the U.S. government's official web portal to all federal, state and local government web resources and services.